Simultaneous Nadir Overpasses (SNOs) Predictions

Prediction of SNOs between GOES-16 and AQUA Satellite Orbit:

Table of predicted SNOs for the next 14.0 days since TLE Epoch: 5/23/2025
Index Date Time (GOES-16) GOES-16 Lat,Lon AQUA Lat,Lon Distance(km) Time Diff (sec)
1 05/25/2025 20:56:26 -0.01, -98.63 0.92, -94.33 489.69 80
2 05/26/2025 09:18:17 0.01, -98.89 0.05, -98.97 9.37 80
3 05/28/2025 21:14:47 -0.00,-100.22 0.29, -98.74 167.16 80
4 05/29/2025 09:36:39 0.01,-100.48 0.61,-103.40 331.30 80
5 05/31/2025 09:13:49 0.00,-101.53 -0.68, -98.49 346.26 80
6 05/31/2025 21:35:49 -0.00,-101.81 -0.29,-103.17 154.15 80
7 06/03/2025 09:32:09 0.00,-103.14 -0.03,-102.90 26.74 80
8 06/03/2025 21:54:09 -0.01,-103.42 -0.92,-107.58 473.75 80
9 06/05/2025 21:31:18 -0.00,-104.48 0.38,-102.67 205.84 80
10 06/06/2025 09:53:08 0.01,-104.75 0.56,-107.31 291.67 80
